Location: Brunembert
(50.7122°N, 1.8935°E)
Time: 10:20:46
(UTC+00:00)

USA 215 - Pass Details

Date: 22 April 2021
Orbit: 1101 x 1107 km, 123.0° (Epoch: 02 May)

Event Time Altitude Azimuth Distance (km) Brightness Sun altitude
Exits shadow 19:34:16 - 97° (E) 3,472 5.3 -5.9°
Reaches altitude 10° 19:35:37 10° 95° (E) 2,959 5.0 -6.1°
Maximum altitude 19:42:02 62° 17° (NNE) 1,229 3.6 -7.0°
Drops below altitude 10° 19:48:28 10° 299° (WNW) 2,965 7.3 -7.8°
Sets 19:50:58 0° 296° (WNW) 3,925 8.6 -8.2°
